Total_Precipitation_Accumulation
0.62 0.81 0.85 0.77 0.77 0.83 0.75 0.70 0.79 0.80 0.66 0.79 0.74 0.56 0.45 0.41 0.39 0.41 0.47 0.49 0.45 0.34 0.23 0.15 0.15 0.21 0.28 0.28 0.28 0.34 0.38 0.45 0.44 0.39 0.42 0.57 0.69 0.81 0.95 1.13 1.15 1.38 1.52 1.45
0.72 0.62 0.46 0.54 0.59 0.67 0.70 0.75 0.79 0.72 0.62 0.69 0.75 0.61 0.47 0.37 0.33 0.34 0.37 0.40 0.39 0.30 0.21 0.15 0.12 0.14 0.20 0.25 0.20 0.22 0.26 0.37 0.45 0.48 0.52 0.65 0.83 0.94 1.06 1.24 1.27 1.36 1.40 1.40
0.53 0.43 0.38 0.46 0.53 0.65 0.64 0.72 0.71 0.72 0.74 0.67 0.74 0.80 0.60 0.42 0.36 0.35 0.35 0.35 0.32 0.24 0.20 0.17 0.14 0.13 0.13 0.18 0.15 0.19 0.27 0.42 0.57 0.73 0.96 1.22 1.51 1.67 1.59 1.49 1.55 1.63 1.70 1.64
0.62 0.42 0.38 0.45 0.50 0.59 0.75 0.51 0.51 0.60 0.82 0.83 0.68 0.89 0.63 0.43 0.42 0.41 0.37 0.32 0.28 0.24 0.22 0.19 0.17 0.15 0.16 0.22 0.28 0.37 0.49 0.65 0.81 1.00 1.23 1.49 1.75 1.96 2.00 2.06 2.10 2.06 1.98 1.86
0.69 0.43 0.39 0.45 0.41 0.45 0.59 0.50 0.49 0.56 0.74 0.71 0.62 0.64 0.55 0.45 0.51 0.51 0.48 0.42 0.37 0.34 0.32 0.31 0.31 0.28 0.28 0.38 0.52 0.64 0.87 1.02 1.15 1.20 1.29 1.51 1.62 1.71 1.83 2.01 2.09 2.09 2.02 1.90
0.59 0.40 0.36 0.37 0.35 0.38 0.48 0.56 0.61 0.69 0.76 0.71 0.49 0.48 0.56 0.46 0.51 0.60 0.57 0.49 0.43 0.40 0.38 0.40 0.45 0.45 0.48 0.69 0.92 1.06 1.18 1.29 1.28 1.23 1.24 1.36 1.50 1.61 1.72 1.89 1.97 1.91 1.80 1.77
0.54 0.47 0.35 0.34 0.42 0.41 0.47 0.70 0.89 0.91 0.83 0.59 0.33 0.38 0.47 0.36 0.35 0.44 0.48 0.46 0.40 0.34 0.34 0.38 0.47 0.60 0.78 1.02 1.23 1.37 1.37 1.29 1.15 1.11 1.17 1.21 1.36 1.54 1.59 1.62 1.66 1.66 1.61 1.55
0.44 0.52 0.35 0.29 0.34 0.37 0.40 0.52 0.77 0.83 0.70 0.49 0.35 0.48 0.51 0.37 0.28 0.25 0.26 0.29 0.35 0.38 0.45 0.46 0.52 0.69 0.98 1.23 1.46 1.73 1.71 1.48 1.26 1.19 1.23 1.26 1.36 1.43 1.43 1.35 1.38 1.41 1.38 1.33
0.33 0.36 0.30 0.29 0.30 0.31 0.37 0.38 0.42 0.57 0.49 0.45 0.38 0.44 0.40 0.28 0.23 0.21 0.24 0.29 0.39 0.45 0.54 0.64 0.75 0.83 1.04 1.27 1.59 1.87 1.92 1.71 1.56 1.47 1.38 1.38 1.31 1.23 1.17 1.07 1.07 1.11 1.14 1.10
0.30 0.35 0.33 0.32 0.36 0.31 0.29 0.32 0.37 0.58 0.64 0.60 0.44 0.46 0.41 0.28 0.21 0.22 0.32 0.38 0.45 0.53 0.55 0.70 0.97 1.19 1.41 1.35 1.48 1.72 1.66 1.59 1.57 1.59 1.55 1.44 1.28 1.16 1.13 1.05 1.05 1.02 1.07 1.01
0.23 0.34 0.38 0.35 0.32 0.28 0.28 0.31 0.34 0.46 0.47 0.62 0.70 0.59 0.36 0.31 0.31 0.37 0.45 0.48 0.52 0.59 0.63 0.78 0.96 1.13 1.30 1.39 1.39 1.44 1.44 1.45 1.42 1.36 1.31 1.18 0.97 0.85 0.85 0.87 0.86 0.81 0.83 0.80
0.21 0.32 0.38 0.32 0.25 0.27 0.32 0.34 0.37 0.60 0.61 0.57 0.79 0.80 0.45 0.44 0.47 0.56 0.63 0.68 0.71 0.72 0.75 0.86 0.95 1.10 1.18 1.17 1.22 1.29 1.22 1.21 1.18 1.07 0.97 0.85 0.72 0.66 0.68 0.69 0.65 0.58 0.60 0.56
0.24 0.38 0.46 0.44 0.37 0.34 0.46 0.50 0.41 0.40 0.56 0.69 0.89 0.86 0.63 0.63 0.68 0.77 0.88 0.90 0.84 0.79 0.76 0.82 0.86 0.95 1.01 1.06 1.13 1.21 1.15 1.15 1.14 1.00 0.85 0.77 0.72 0.70 0.68 0.62 0.56 0.47 0.44 0.50
0.24 0.35 0.35 0.37 0.34 0.34 0.51 0.57 0.46 0.46 0.64 0.67 0.69 0.78 0.79 0.88 0.90 0.91 0.91 0.89 0.79 0.68 0.59 0.55 0.54 0.63 0.69 0.74 0.84 0.94 0.93 1.12 1.26 1.17 0.97 0.86 0.81 0.71 0.62 0.53 0.49 0.43 0.47 0.53
0.22 0.30 0.24 0.16 0.15 0.19 0.32 0.39 0.36 0.40 0.45 0.50 0.53 0.61 0.76 0.87 0.90 0.86 0.77 0.62 0.54 0.46 0.37 0.31 0.32 0.39 0.45 0.55 0.60 0.68 0.82 1.05 1.09 0.89 0.68 0.60 0.60 0.58 0.47 0.43 0.42 0.39 0.39 0.38
0.20 0.27 0.23 0.18 0.12 0.14 0.15 0.14 0.16 0.19 0.23 0.28 0.37 0.52 0.59 0.64 0.64 0.58 0.45 0.32 0.30 0.27 0.24 0.21 0.23 0.28 0.30 0.33 0.42 0.54 0.62 0.68 0.67 0.59 0.49 0.45 0.40 0.36 0.34 0.34 0.33 0.30 0.27 0.23
0.20 0.27 0.34 0.29 0.14 0.15 0.14 0.08 0.13 0.20 0.21 0.28 0.42 0.50 0.45 0.42 0.40 0.38 0.28 0.19 0.18 0.17 0.16 0.14 0.16 0.22 0.22 0.25 0.27 0.28 0.34 0.42 0.41 0.34 0.29 0.29 0.31 0.28 0.25 0.26 0.27 0.27 0.26 0.22
0.17 0.26 0.38 0.36 0.30 0.26 0.10 0.05 0.08 0.14 0.19 0.26 0.34 0.34 0.27 0.24 0.21 0.20 0.15 0.12 0.13 0.13 0.13 0.12 0.13 0.16 0.19 0.22 0.25 0.26 0.28 0.31 0.32 0.26 0.21 0.21 0.24 0.25 0.26 0.28 0.29 0.27 0.24 0.22
0.12 0.26 0.41 0.40 0.42 0.21 0.07 0.05 0.06 0.08 0.11 0.12 0.13 0.13 0.11 0.10 0.12 0.14 0.12 0.11 0.12 0.12 0.12 0.14 0.15 0.18 0.21 0.24 0.26 0.23 0.22 0.23 0.24 0.22 0.22 0.21 0.23 0.24 0.24 0.23 0.24 0.24 0.23 0.22
0.15 0.22 0.36 0.40 0.42 0.27 0.11 0.07 0.06 0.08 0.12 0.08 0.07 0.07 0.08 0.08 0.14 0.15 0.11 0.10 0.11 0.13 0.13 0.14 0.17 0.21 0.22 0.23 0.24 0.23 0.22 0.21 0.20 0.23 0.25 0.28 0.27 0.24 0.22 0.23 0.25 0.24 0.23 0.23
0.21 0.25 0.29 0.35 0.41 0.21 0.09 0.08 0.09 0.15 0.14 0.08 0.06 0.06 0.07 0.09 0.12 0.11 0.10 0.10 0.10 0.15 0.17 0.16 0.18 0.19 0.20 0.21 0.24 0.25 0.26 0.27 0.27 0.26 0.29 0.28 0.26 0.25 0.25 0.27 0.29 0.28 0.26 0.25
0.26 0.30 0.29 0.33 0.39 0.22 0.08 0.09 0.12 0.12 0.08 0.06 0.06 0.06 0.06 0.08 0.08 0.08 0.10 0.09 0.09 0.12 0.15 0.16 0.17 0.17 0.19 0.20 0.22 0.22 0.23 0.28 0.28 0.25 0.25 0.24 0.23 0.24 0.27 0.28 0.25 0.23 0.23 0.23
0.23 0.24 0.28 0.27 0.22 0.13 0.10 0.11 0.11 0.10 0.09 0.06 0.05 0.06 0.06 0.07 0.08 0.08 0.08 0.09 0.10 0.12 0.13 0.14 0.16 0.17 0.20 0.22 0.23 0.24 0.26 0.30 0.26 0.23 0.24 0.25 0.27 0.29 0.29 0.30 0.26 0.24 0.23 0.24
0.21 0.20 0.24 0.23 0.14 0.09 0.11 0.11 0.11 0.09 0.08 0.07 0.06 0.07 0.10 0.10 0.11 0.12 0.09 0.09 0.10 0.12 0.13 0.15 0.17 0.20 0.21 0.26 0.28 0.29 0.30 0.31 0.31 0.30 0.29 0.31 0.31 0.32 0.33 0.30 0.28 0.25 0.24 0.28
0.22 0.21 0.24 0.23 0.17 0.13 0.11 0.10 0.09 0.07 0.08 0.08 0.09 0.08 0.11 0.13 0.12 0.14 0.13 0.13 0.12 0.12 0.12 0.14 0.16 0.17 0.20 0.22 0.24 0.26 0.26 0.28 0.29 0.30 0.32 0.35 0.34 0.36 0.36 0.34 0.32 0.31 0.30 0.33
0.20 0.21 0.27 0.27 0.23 0.22 0.17 0.14 0.10 0.10 0.12 0.11 0.13 0.11 0.10 0.11 0.12 0.13 0.15 0.19 0.19 0.16 0.16 0.16 0.18 0.19 0.18 0.19 0.18 0.20 0.23 0.24 0.26 0.28 0.32 0.34 0.37 0.38 0.39 0.40 0.38 0.39 0.37 0.38